Location: Krakow
(50.0830°N, 19.9170°E)
Time: 00:01:41
(UTC+01:00)

S-56A Canister/Altair - Pass Details

Date: 05 December 2023
Orbit: 640 x 2488 km, 38.9° (Epoch: 23 February)

Event Time Altitude Azimuth Distance (km) Brightness Sun altitude
Rises 14:36:09 0° 253° (WSW) 2,941 11.7 6.8°
Reaches altitude 10° 14:38:48 10° 236° (SW) 2,086 11.8 6.5°
Maximum altitude 14:42:16 20° 188° (S) 1,629 10.2 6.1°
Drops below altitude 10° 14:46:18 10° 141° (SE) 2,475 10.3 5.6°
Sets 14:49:49 0° 126° (SE) 3,689 10.9 5.2°
